Forside
METAR-TAF:

METAR-TAF

Lufthavne :

Sky Harbor Airport

Duluth, Minnesota, USA

Breddekreds: 46-43-19N, længdekreds: 092-02-36W, højde: 186 m

Aktuelle vejr

Denne rapport blev lavet for 23 minutter siden, kl. 06:35 UTC
Vind 10 kt fra sydsydvest
Temperatur 2°C
Fugtighed 75%
Tryk 1008 hPa
Sigt: 16.1 km
skyfri

METAR: KDYT 290635Z AUTO 21010KT 10SM CLR 02/M02 A2976 RMK AO2

Tid: 00:58 (06:58 UTC)


TAF: fraværende

Vejrobservationer og prognoser fra mere end 4000 lufthavne (METAR og TAF).

De gule og røde prikker repræsenterer de meteorologiske stationer.

Flyt musen over at se navnet på stationen.

Så klik over at se vejr observationer og prognoser.

At skifte det kort: Klik på de grønne knapper med et sort kors for at zoome ind; på den grønne knap med en bindestreg for at zoome ud; eller på de grønne pile for tilstødende kort.


METAR-TAF: